Temp
18 19 19 20 16 13 16 17 18 17 17 17 18 17 16 13 16 16 14 15 15 15 15 15 15 15 15 15 15 15 15 15 15 15 15 15 15 15 15 15 15 15 15 15 15 15 15 15 15
18 18 19 19 14 15 15 17 17 17 15 17 17 16 15 13 14 14 14 14 15 15 15 15 15 15 15 15 15 15 15 15 15 15 15 15 15 15 15 15 15 15 15 15 15 15 15 14 15
18 18 19 12 11 15 16 17 16 16 16 17 16 15 14 13 14 14 14 15 15 15 15 15 15 15 15 15 15 15 15 15 15 15 15 15 15 15 15 15 15 15 15 14 14 14 14 14 15
17 18 17 14 15 16 18 16 16 15 16 17 16 13 14 14 14 14 14 14 14 15 15 15 15 15 15 15 15 15 16 16 15 15 15 15 15 15 15 15 15 15 14 15 15 14 14 14 14
16 17 12 14 16 17 16 16 17 16 16 16 17 13 13 14 14 14 14 14 15 15 15 15 15 16 16 16 16 15 15 16 15 15 15 15 15 15 15 15 15 15 15 15 14 14 14 14 14
15 15 12 14 15 16 16 17 18 17 16 15 15 13 14 14 14 14 14 15 15 15 15 15 16 16 16 15 15 15 15 15 15 15 15 15 15 15 15 14 14 14 14 14 14 14 14 14 14
13 11 13 13 14 16 16 17 17 16 16 16 16 12 13 13 14 14 14 14 15 15 15 15 16 16 16 15 15 15 15 15 15 15 15 15 14 14 14 14 14 14 14 14 14 14 14 14 14
16 10 12 13 13 17 16 17 17 17 15 16 16 13 12 13 13 14 14 14 14 15 15 15 15 15 15 15 15 15 15 15 15 14 14 14 14 14 13 13 13 13 13 13 13 13 13 13 13
15 11 11 13 13 16 16 16 16 17 16 16 16 16 16 15 14 14 14 14 14 15 15 15 15 15 15 15 15 14 14 14 14 14 13 13 13 12 12 12 12 12 12 12 12 12 12 13 12
12 11 12 13 14 14 15 17 17 16 16 16 16 17 17 15 15 14 14 14 14 15 15 15 15 15 14 14 14 14 14 14 13 13 12 12 12 12 12 12 12 12 12 12 12 12 12 12 12
12 12 13 13 14 15 15 15 16 16 16 17 18 18 16 15 15 14 14 14 14 15 14 14 15 14 14 14 14 14 14 14 13 13 12 12 12 12 12 12 12 12 12 12 12 12 12 12 12
12 12 13 12 14 15 15 16 15 17 16 18 18 18 17 16 15 15 15 15 15 15 14 14 14 14 14 14 14 14 13 13 13 12 12 12 11 11 11 11 11 12 12 12 12 12 12 12 12
11 12 12 12 14 14 16 14 15 16 17 18 18 17 17 16 15 15 14 14 14 14 14 14 14 13 13 13 13 13 13 12 12 11 11 11 11 11 11 11 11 11 11 11 11 11 11 11 11
12 12 12 13 13 14 14 14 16 16 16 17 17 16 16 16 15 15 15 15 15 14 14 14 13 13 13 13 13 13 12 12 11 11 11 11 10 10 10 10 10 10 10 10 10 11 11 11 11
12 12 12 11 12 12 14 16 15 15 16 16 16 16 15 15 15 15 15 15 14 14 13 13 13 12 13 13 13 12 12 11 11 11 10 10 9 9 10 9 9 9 9 9 9 9 10 10 11
11 10 12 11 12 13 15 15 13 14 15 15 15 15 16 16 16 15 15 14 14 14 13 13 12 12 12 12 12 12 11 11 11 10 10 9 9 9 9 9 9 9 9 9 10 10 10 11 11
8 10 12 13 11 12 13 15 13 13 14 14 14 15 15 15 15 15 14 14 14 13 13 12 12 12 12 12 12 12 11 11 10 10 10 9 9 8 9 9 9 9 9 10 10 10 10 10 10
11 10 11 12 11 12 12 13 12 12 13 14 14 14 15 15 15 15 14 14 13 13 12 12 12 11 11 11 11 11 12 11 10 10 10 9 9 8 8 8 8 8 9 8 9 9 9 9 10
9 10 10 10 10 12 11 12 11 11 12 12 13 14 14 15 14 15 14 14 13 13 12 12 11 11 11 11 11 11 11 11 10 10 9 9 9 8 8 8 8 8 8 8 8 9 9 9 9
10 10 10 10 10 11 10 12 11 10 10 10 11 12 13 13 14 14 14 14 13 12 12 11 11 11 11 11 11 11 11 11 10 10 9 9 9 8 8 8 8 7 7 7 7 8 8 8 8
8 9 9 11 10 8 9 11 11 11 10 10 10 11 11 12 13 13 14 13 12 12 11 11 11 11 11 11 11 11 11 11 10 10 10 9 9 8 8 8 7 7 7 7 7 7 7 7 7
11 9 9 9 8 9 7 10 11 10 10 10 10 10 11 11 12 12 12 11 11 11 11 11 11 11 10 10 10 10 10 10 10 10 9 9 8 8 8 8 7 7 7 7 7 7 7 7 7
9 9 9 8 7 7 8 7 10 9 10 9 10 10 10 11 11 11 11 10 10 10 10 10 11 10 10 10 10 10 10 9 9 9 9 8 8 8 8 7 7 7 7 6 6 6 6 6 6
7 8 6 5 6 6 6 5 10 8 9 9 9 10 10 10 11 11 10 10 10 10 10 10 11 11 10 10 9 9 9 9 8 8 8 8 8 8 7 7 6 6 6 6 6 6 5 5 5
8 7 4 7 4 7 4 3 7 9 9 8 8 10 10 10 10 10 10 10 10 10 10 10 10 10 10 10 10 9 9 8 8 8 7 7 7 7 7 6 6 6 6 5 5 5 5 5 5
8 8 4 10 6 6 3 6 10 7 9 10 11 11 10 10 10 10 10 10 10 10 10 10 10 10 10 9 9 9 9 9 8 7 7 7 7 7 6 6 6 6 6 6 5 5 5 5 5
9 6 6 3 -1 2 4 6 7 7 8 8 9 10 10 10 10 10 10 10 10 9 9 9 9 9 9 9 9 9 9 8 8 7 7 7 7 7 7 7 7 6 6 5 5 5 5 4 4
8 6 7 4 9 10 5 6 7 7 6 6 6 9 10 9 10 9 9 9 9 9 9 8 8 8 8 8 8 8 8 8 8 8 8 7 7 7 7 7 6 6 6 5 5 5 4 4 4
7 7 5 5 6 7 8 8 5 7 5 5 7 9 10 10 9 9 9 9 9 8 8 7 7 7 7 7 8 8 8 8 8 7 7 7 7 7 7 7 7 6 6 6 5 5 4 4 4
7 8 6 7 8 4 4 6 7 6 6 8 9 10 10 10 9 9 8 8 8 7 7 6 6 6 7 7 7 7 7 7 7 7 7 7 7 7 7 7 6 6 6 6 5 5 4 4 3
Height
1523 1525 1526 1526 1539 1543 1545 1537 1528 1530 1531 1531 1532 1535 1538 1542 1542 1554 1549 1551 1553 1555 1555 1556 1556 1556 1556 1556 1556 1556 1556 1556 1555 1555 1554 1554 1553 1553 1552 1552 1551 1551 1550 1549 1549 1549 1548 1547 1547
1522 1524 1526 1526 1545 1552 1546 1531 1531 1528 1530 1531 1532 1536 1539 1543 1542 1545 1549 1551 1553 1554 1555 1556 1556 1556 1556 1556 1556 1556 1555 1555 1554 1554 1553 1553 1552 1552 1552 1551 1550 1550 1549 1549 1548 1547 1546 1546 1545
1521 1523 1526 1531 1546 1547 1540 1527 1528 1529 1529 1531 1534 1537 1540 1542 1543 1545 1548 1551 1553 1554 1555 1556 1556 1556 1556 1556 1556 1556 1555 1554 1554 1553 1552 1551 1550 1550 1550 1549 1549 1548 1547 1547 1546 1545 1545 1544 1543
1520 1525 1527 1535 1537 1529 1524 1523 1524 1529 1530 1530 1532 1537 1541 1541 1543 1546 1548 1551 1553 1554 1555 1556 1556 1556 1556 1556 1556 1555 1554 1553 1552 1551 1550 1549 1548 1548 1547 1546 1545 1545 1545 1544 1544 1543 1542 1542 1541
1520 1522 1534 1536 1530 1524 1522 1522 1524 1528 1530 1531 1533 1538 1540 1542 1543 1546 1549 1551 1553 1554 1555 1556 1556 1556 1556 1556 1555 1554 1553 1552 1551 1550 1549 1548 1546 1545 1544 1543 1542 1542 1541 1541 1540 1540 1539 1539 1538
1518 1520 1536 1539 1530 1523 1522 1522 1524 1527 1530 1532 1535 1537 1541 1542 1544 1546 1549 1551 1552 1554 1555 1555 1556 1556 1556 1555 1554 1553 1552 1551 1549 1548 1547 1546 1545 1543 1542 1541 1540 1539 1539 1538 1537 1536 1536 1536 1535
1516 1522 1529 1531 1530 1525 1521 1522 1524 1527 1529 1532 1534 1538 1540 1542 1545 1547 1549 1551 1552 1554 1554 1555 1555 1555 1555 1554 1553 1552 1551 1550 1548 1547 1545 1544 1542 1541 1540 1539 1538 1536 1536 1535 1534 1533 1533 1532 1532
1514 1517 1528 1527 1530 1524 1520 1522 1524 1526 1530 1532 1533 1536 1540 1539 1543 1546 1549 1551 1552 1553 1554 1554 1555 1555 1554 1553 1552 1551 1550 1548 1547 1545 1544 1543 1541 1540 1538 1537 1536 1535 1534 1533 1532 1531 1530 1530 1529
1512 1524 1530 1525 1526 1520 1520 1522 1525 1527 1529 1532 1533 1534 1535 1538 1542 1545 1548 1550 1552 1553 1554 1554 1554 1554 1553 1552 1550 1550 1549 1548 1546 1544 1543 1541 1540 1539 1537 1536 1534 1533 1532 1531 1530 1529 1528 1527 1526
1511 1522 1519 1515 1516 1518 1520 1521 1524 1528 1531 1532 1533 1534 1535 1538 1541 1545 1547 1549 1551 1552 1553 1553 1554 1553 1552 1551 1550 1548 1547 1546 1544 1543 1541 1540 1538 1537 1536 1535 1533 1532 1531 1530 1528 1527 1526 1525 1523
1511 1516 1515 1516 1516 1516 1519 1522 1525 1527 1532 1531 1532 1533 1535 1538 1542 1545 1547 1549 1551 1552 1553 1553 1553 1552 1551 1550 1549 1547 1546 1545 1544 1542 1541 1539 1538 1536 1535 1533 1532 1531 1530 1528 1527 1525 1524 1522 1520
1513 1514 1515 1516 1516 1517 1520 1522 1525 1528 1530 1531 1532 1534 1536 1538 1541 1544 1547 1549 1550 1552 1552 1552 1552 1551 1551 1549 1548 1547 1546 1544 1543 1541 1540 1538 1537 1535 1534 1532 1531 1529 1528 1526 1525 1523 1521 1520 1518
1511 1515 1515 1517 1516 1518 1521 1524 1527 1529 1530 1531 1533 1536 1537 1540 1542 1544 1546 1548 1549 1550 1551 1552 1551 1551 1550 1549 1547 1546 1545 1543 1541 1540 1538 1537 1536 1535 1533 1531 1529 1527 1526 1524 1523 1521 1519 1517 1515
1511 1514 1517 1518 1518 1520 1523 1526 1527 1531 1530 1531 1533 1536 1538 1540 1542 1543 1544 1547 1548 1549 1550 1550 1550 1550 1549 1547 1546 1545 1544 1542 1541 1539 1538 1536 1534 1533 1532 1529 1527 1526 1524 1523 1521 1519 1518 1516 1514
1513 1517 1517 1520 1520 1523 1523 1529 1530 1531 1531 1531 1533 1536 1538 1539 1540 1542 1544 1546 1547 1548 1549 1549 1549 1548 1547 1546 1545 1544 1543 1541 1539 1538 1537 1535 1533 1532 1530 1529 1527 1525 1524 1522 1520 1519 1517 1516 1514
1516 1519 1526 1524 1522 1524 1524 1534 1530 1531 1531 1532 1533 1535 1537 1538 1539 1541 1543 1544 1546 1547 1547 1547 1547 1546 1546 1545 1544 1542 1541 1540 1538 1537 1536 1534 1533 1531 1529 1528 1527 1525 1523 1521 1519 1517 1516 1514 1511
1526 1531 1528 1527 1526 1526 1526 1530 1530 1531 1531 1532 1533 1534 1536 1536 1537 1539 1540 1542 1544 1545 1546 1545 1545 1545 1544 1543 1542 1541 1541 1539 1538 1536 1535 1533 1531 1530 1528 1527 1525 1524 1522 1520 1518 1515 1513 1511 1510
1525 1531 1530 1530 1530 1528 1531 1531 1530 1531 1532 1532 1533 1533 1534 1534 1534 1535 1537 1539 1541 1542 1543 1543 1543 1543 1542 1541 1540 1540 1539 1539 1537 1536 1534 1532 1530 1529 1528 1526 1524 1523 1521 1519 1517 1515 1512 1510 1508
1520 1524 1530 1532 1531 1529 1534 1532 1530 1530 1530 1531 1531 1531 1532 1532 1532 1532 1533 1535 1538 1540 1541 1541 1542 1541 1540 1540 1539 1538 1539 1538 1536 1535 1533 1531 1530 1529 1527 1525 1523 1521 1520 1518 1515 1513 1510 1508 1506
1521 1527 1533 1534 1532 1531 1536 1532 1530 1529 1530 1530 1529 1529 1530 1530 1530 1530 1530 1532 1535 1538 1539 1540 1539 1538 1538 1538 1538 1537 1537 1536 1535 1533 1532 1530 1529 1527 1526 1524 1522 1520 1519 1517 1515 1512 1510 1507 1505
1529 1530 1533 1531 1534 1537 1537 1536 1530 1529 1529 1529 1528 1528 1529 1529 1528 1528 1528 1530 1534 1537 1538 1538 1537 1536 1536 1536 1535 1535 1535 1534 1533 1532 1530 1529 1527 1526 1524 1522 1521 1519 1517 1515 1513 1511 1509 1507 1506
1525 1530 1531 1534 1541 1551 1546 1555 1532 1529 1528 1528 1527 1527 1528 1528 1527 1527 1528 1530 1533 1536 1536 1536 1535 1534 1533 1533 1532 1532 1531 1530 1530 1529 1528 1527 1526 1524 1522 1521 1519 1517 1516 1514 1512 1510 1508 1506 1505
1530 1530 1532 1538 1544 1548 1548 1558 1531 1531 1530 1528 1526 1526 1527 1528 1528 1528 1530 1531 1533 1534 1534 1533 1533 1532 1531 1530 1529 1528 1527 1527 1526 1526 1525 1524 1523 1522 1520 1518 1516 1515 1513 1511 1510 1508 1506 1504 1503
1529 1532 1540 1548 1551 1569 1560 1563 1533 1533 1525 1524 1524 1525 1526 1527 1528 1529 1530 1531 1532 1532 1532 1531 1530 1529 1528 1526 1524 1523 1522 1523 1522 1522 1520 1520 1519 1518 1516 1514 1512 1511 1510 1508 1506 1505 1503 1501 1500
1531 1539 1577 1566 1582 1564 1565 1572 1532 1519 1519 1520 1521 1523 1525 1527 1528 1529 1530 1530 1530 1530 1530 1529 1527 1525 1524 1522 1520 1519 1517 1517 1517 1517 1516 1515 1514 1513 1512 1510 1509 1507 1505 1503 1502 1500 1498 1497 1495
1536 1538 1566 1556 1573 1567 1569 1556 1520 1518 1518 1519 1520 1522 1525 1527 1528 1529 1529 1529 1528 1528 1527 1526 1524 1522 1521 1519 1518 1516 1514 1513 1513 1513 1512 1511 1509 1509 1508 1506 1504 1502 1500 1498 1496 1493 1491 1490 1488
1534 1547 1546 1570 1592 1583 1562 1537 1519 1517 1518 1518 1519 1521 1524 1526 1527 1528 1528 1527 1526 1526 1525 1523 1522 1520 1518 1517 1515 1513 1511 1510 1509 1509 1508 1507 1506 1504 1503 1501 1499 1497 1495 1493 1491 1488 1487 1485 1484
1534 1541 1548 1560 1554 1551 1558 1544 1530 1518 1518 1517 1518 1519 1522 1524 1525 1526 1526 1525 1524 1523 1522 1521 1519 1518 1517 1515 1513 1512 1511 1509 1508 1507 1506 1504 1503 1501 1499 1497 1494 1492 1490 1488 1485 1483 1482 1480 1479
1541 1542 1548 1550 1554 1557 1551 1535 1515 1511 1511 1513 1514 1517 1519 1522 1523 1524 1524 1523 1522 1521 1520 1519 1517 1516 1515 1513 1512 1511 1509 1508 1506 1504 1503 1501 1499 1496 1494 1492 1489 1486 1484 1481 1479 1476 1475 1472 1471
1536 1536 1541 1547 1545 1563 1562 1537 1509 1508 1507 1510 1513 1516 1518 1519 1520 1521 1522 1521 1520 1519 1519 1518 1517 1515 1513 1511 1510 1509 1507 1505 1503 1502 1499 1497 1494 1492 1488 1485 1482 1479 1476 1474 1471 1468 1467 1465 1462
Wind_Speed
10 7 5 4 4 5 2 4 1 4 3 3 10 6 6 4 2 3 14 11 6 5 3 3 1 1 2 2 3 4 5 6 6 6 6 6 6 6 6 7 7 6 6 7 7 7 7 7 7
10 8 6 3 4 2 4 2 5 4 11 20 15 9 4 2 5 13 16 14 10 4 3 2 2 2 3 4 5 5 5 6 6 7 7 8 9 9 9 9 9 8 8 8 8 8 8 8 8
11 11 4 4 4 5 4 4 6 10 14 5 6 6 4 6 13 20 17 14 10 5 5 4 3 4 5 5 6 7 8 9 10 10 11 11 12 12 12 13 12 11 11 10 9 9 9 9 9
10 6 4 4 5 5 3 5 7 9 2 4 12 7 6 10 17 13 18 14 9 5 5 5 4 5 6 7 8 9 10 10 11 12 12 13 14 14 15 15 15 14 14 14 14 14 13 13 11
13 4 3 2 4 3 2 8 17 5 6 8 7 6 8 16 12 15 15 11 7 4 4 4 3 5 6 8 9 9 10 10 11 12 12 13 13 14 14 14 15 16 15 15 16 16 16 17 16
5 3 3 4 3 2 1 11 7 5 6 10 8 10 7 14 15 17 14 11 7 5 3 3 3 5 7 8 9 10 10 11 12 13 13 14 14 14 14 13 13 14 14 15 15 16 16 16 17
6 4 4 6 6 2 5 9 7 7 7 3 12 5 7 17 17 16 14 11 7 4 3 3 5 6 8 9 10 11 12 12 13 13 13 13 13 13 13 13 14 14 14 14 15 15 15 14 14
4 5 5 3 6 5 7 6 8 5 3 12 4 5 6 22 20 18 15 11 7 4 3 4 5 7 8 10 11 12 12 12 13 12 12 12 12 12 12 12 13 13 13 13 13 14 14 15 14
5 4 4 8 8 4 9 4 4 6 11 4 3 6 5 23 22 19 16 12 7 4 3 4 6 8 9 10 11 12 12 12 12 12 12 12 12 12 12 12 13 13 13 14 14 15 16 16 16
4 4 9 4 3 4 8 5 10 5 6 3 4 5 10 22 19 17 14 10 6 5 4 4 6 7 9 10 11 12 12 12 12 12 13 13 13 13 12 13 13 14 14 15 15 16 16 17 17
4 4 4 1 2 5 7 5 5 12 1 5 8 10 16 21 18 15 12 9 7 6 4 4 6 7 9 11 12 12 13 14 14 13 13 12 12 12 12 12 13 13 14 14 14 15 15 15 15
6 3 2 2 3 5 7 10 5 3 2 2 5 9 17 18 16 14 12 10 8 6 5 5 8 9 10 11 13 13 13 13 12 13 13 12 12 12 13 13 13 13 13 13 13 13 13 13 14
4 4 6 6 10 10 9 6 4 4 3 5 9 12 15 15 13 12 12 11 8 6 6 7 9 9 10 12 13 13 12 11 11 11 11 12 13 13 13 13 13 12 12 12 11 11 11 10 11
7 9 7 9 9 8 6 3 4 3 4 7 11 13 14 12 11 12 13 10 7 7 6 8 9 9 11 12 13 13 12 12 12 13 14 14 13 12 12 12 12 12 12 12 12 12 12 12 12
8 6 4 10 6 4 4 2 1 2 7 8 12 12 12 11 12 11 9 7 6 6 7 7 8 9 11 13 13 12 11 11 11 12 13 12 12 12 12 13 13 13 12 12 12 12 13 13 13
4 5 5 5 7 3 4 4 3 2 9 9 11 11 11 12 11 10 11 10 10 8 7 7 8 9 11 12 13 11 11 11 11 12 13 13 13 13 13 14 14 13 13 14 14 14 12 12 12
7 5 4 2 5 2 4 2 4 2 6 8 9 10 11 12 13 12 12 12 12 11 9 7 8 10 11 12 11 10 10 10 10 12 12 12 12 12 12 12 12 13 14 14 15 15 16 15 14
5 6 3 4 2 4 3 1 2 2 2 6 7 8 10 12 11 13 13 13 15 13 11 8 9 11 13 11 9 9 9 9 10 11 12 11 11 12 12 12 14 15 15 16 16 16 17 17 16
7 6 6 1 2 2 2 3 4 7 5 9 12 11 12 12 9 11 14 14 16 15 11 8 10 13 13 10 9 8 7 8 9 11 12 12 12 13 13 13 13 14 14 14 15 16 16 16 16
6 6 3 2 2 2 3 4 3 3 2 3 5 7 8 8 8 8 10 16 16 13 10 9 13 14 9 10 10 9 9 10 10 11 11 12 12 12 12 13 13 14 15 15 16 17 17 17 17
4 6 4 4 2 4 2 6 2 0 2 2 3 2 1 1 3 5 7 11 12 10 8 10 12 8 9 11 11 12 13 13 12 13 12 12 12 12 13 14 14 15 15 15 16 16 16 17 16
4 2 4 6 4 3 3 4 4 2 2 1 1 3 3 3 2 3 5 7 7 5 7 8 8 9 10 13 14 15 16 17 16 16 15 14 13 13 13 14 15 16 16 16 17 17 16 16 16
4 3 4 3 5 4 5 3 6 2 5 6 5 2 3 4 6 7 8 6 3 4 5 8 11 12 14 16 17 18 19 18 18 19 18 17 16 15 15 16 17 17 18 18 18 18 17 17 16
6 6 7 4 3 3 3 3 5 5 6 4 5 6 5 6 7 8 7 5 2 4 7 10 13 13 15 17 19 22 21 19 19 19 20 19 18 17 16 17 19 19 20 20 20 20 19 18 17
4 6 3 3 4 5 3 2 9 4 4 7 11 10 8 8 7 7 5 4 1 3 6 10 13 12 12 14 16 18 19 20 19 17 18 19 19 18 16 18 19 20 20 21 22 22 21 20 20
2 4 5 6 3 4 4 6 5 4 2 5 12 11 10 9 8 6 4 1 3 6 9 12 13 12 12 12 13 14 15 16 17 15 16 18 18 17 16 18 20 20 21 21 22 23 23 23 23
2 2 4 7 3 3 3 7 7 4 2 7 12 13 11 10 6 4 3 2 5 8 13 15 15 13 12 12 11 12 12 12 12 13 15 15 14 15 16 18 20 21 22 23 23 24 25 25 26
1 5 4 3 2 3 5 5 5 5 8 7 9 14 13 9 7 6 4 4 7 11 14 15 14 12 10 9 9 10 11 10 10 11 12 14 15 16 19 21 23 24 25 26 26 27 27 27 27
1 1 5 3 3 4 2 6 6 6 9 10 16 15 14 12 9 7 5 6 9 12 13 10 8 7 7 8 8 9 10 11 12 13 15 17 19 21 23 25 26 27 28 28 29 30 30 30 29
1 2 4 4 4 1 2 7 0 6 9 18 17 14 14 12 11 8 6 7 9 9 7 7 7 8 10 10 9 9 11 12 13 14 16 18 19 20 22 24 25 26 27 28 30 31 32 33 33
Wind_Direction
217 211 180 160 66 66 255 255 207 129 131 150 129 139 151 76 132 175 140 160 156 150 129 271 301 357 357 340 336 332 329 328 324 319 319 316 318 318 322 323 324 311 315 315 320 326 327 322 324
196 179 162 129 97 101 261 248 171 177 131 115 106 102 74 95 109 140 139 147 154 179 209 245 289 318 307 312 315 315 317 316 313 312 311 309 307 305 303 304 308 309 306 305 305 306 311 310 310
176 167 164 109 130 178 202 185 158 136 139 127 110 88 92 117 128 141 147 158 177 193 205 239 277 302 311 317 313 312 308 306 304 302 301 297 294 295 296 295 295 294 292 294 296 296 298 300 297
161 160 85 104 206 244 204 172 144 135 130 134 129 84 115 134 141 152 156 165 180 188 216 251 285 309 319 319 319 315 313 310 304 301 296 293 293 293 290 289 289 288 285 283 281 280 281 284 285
162 155 83 132 227 258 252 155 147 138 133 138 150 166 141 155 150 155 163 167 170 189 216 258 294 312 320 324 326 324 321 317 312 308 307 305 302 300 297 294 289 288 288 286 283 279 278 279 281
153 141 95 194 226 268 205 161 148 125 139 142 128 132 145 165 162 162 169 173 178 196 228 267 300 317 327 333 334 328 323 320 317 317 314 310 307 303 301 300 298 297 296 293 291 288 287 283 280
146 106 192 161 173 191 185 169 161 148 134 144 142 104 148 161 166 169 174 178 185 199 231 278 311 329 336 339 334 330 330 327 326 326 323 321 317 313 308 302 299 297 297 296 295 295 296 294 291
174 97 118 199 177 207 158 127 141 129 101 134 169 170 174 170 171 175 180 189 198 216 252 289 323 335 340 339 334 332 332 330 329 327 324 323 320 318 315 310 307 307 306 306 304 303 302 302 300
160 74 164 194 158 166 160 121 122 121 136 134 148 155 162 175 175 180 188 193 204 220 257 301 327 336 337 334 335 335 333 330 327 324 324 327 325 322 320 319 317 314 310 307 305 303 301 299 297
117 131 198 173 170 168 149 125 131 134 135 120 144 156 154 176 180 187 194 202 208 229 265 306 327 330 330 335 337 334 332 329 329 329 330 332 331 329 327 323 319 316 313 311 308 305 303 301 299
125 157 167 102 157 160 136 103 118 133 224 193 185 168 163 177 185 193 200 208 218 239 267 303 320 323 330 335 335 335 333 334 336 335 334 333 335 335 332 329 326 324 321 318 313 309 305 303 300
95 62 97 32 133 128 129 126 101 97 126 183 181 180 169 179 189 196 205 215 229 247 274 301 320 322 330 336 338 337 338 337 337 338 338 339 338 336 333 333 333 333 331 330 327 321 316 311 306
92 147 76 87 114 104 128 90 140 132 114 136 154 167 171 181 192 200 209 220 233 245 275 305 315 319 327 335 337 337 335 334 338 341 340 339 337 336 340 341 341 340 339 336 334 332 330 324 317
130 112 105 77 90 84 110 84 142 176 151 145 164 166 177 190 203 214 219 227 244 247 284 304 313 316 325 332 332 331 333 339 340 341 342 340 343 341 340 340 339 337 333 331 329 328 329 328 325
131 84 57 26 15 67 102 52 112 158 171 157 168 178 191 204 218 232 239 246 243 249 273 297 308 316 322 325 330 332 336 340 342 342 341 342 340 339 337 337 339 338 337 335 332 332 330 330 328
66 54 102 340 359 24 100 256 23 216 193 176 181 193 208 220 235 237 239 238 240 249 275 294 313 321 322 327 328 332 333 334 337 339 341 341 340 340 340 339 340 340 339 337 338 336 338 331 327
18 130 95 90 27 360 74 175 347 85 186 185 187 202 220 229 236 239 241 240 238 247 261 282 309 322 323 322 320 324 328 335 338 340 340 340 340 338 339 336 336 338 341 339 338 338 336 338 342
144 106 77 142 322 37 82 186 338 48 243 224 222 225 235 244 248 245 243 241 236 243 252 279 308 318 319 309 312 321 333 334 336 337 338 340 337 333 330 333 338 341 342 343 341 342 344 343 346
122 104 112 33 13 92 353 275 279 326 283 262 250 249 258 254 252 248 239 234 234 239 250 281 304 309 309 301 302 309 318 325 331 333 335 335 334 333 331 334 337 338 339 338 339 340 340 340 342
76 108 69 49 31 95 15 276 288 0 41 334 286 247 250 250 251 251 240 231 230 233 250 283 302 307 297 292 294 299 302 311 320 323 328 331 328 324 324 327 330 332 335 336 339 341 343 345 346
46 129 178 159 114 65 343 312 233 165 98 55 79 102 131 262 267 256 232 216 214 226 258 294 305 300 288 291 296 297 295 299 306 308 316 320 319 318 320 322 324 327 328 330 333 336 338 339 342
99 341 104 110 86 178 17 258 273 223 221 267 107 91 84 71 66 117 143 162 182 227 280 294 298 296 296 295 295 292 290 291 296 298 303 306 309 312 314 314 315 316 317 320 322 325 328 331 334
147 90 83 83 89 98 351 74 260 20 238 222 209 168 113 98 97 118 127 140 180 247 277 285 286 289 290 289 289 288 288 291 291 291 294 297 299 305 311 310 307 308 308 309 311 314 316 319 322
148 74 49 53 71 30 335 117 272 194 206 177 192 175 148 132 121 122 129 142 192 264 288 300 303 305 296 288 286 284 283 288 290 295 294 290 291 296 304 306 308 306 304 302 303 303 305 307 310
73 65 14 5 5 218 338 43 245 231 226 183 181 165 152 144 138 135 136 136 137 309 320 326 327 327 310 304 301 293 283 278 284 294 301 294 287 289 298 302 306 306 303 300 297 296 297 298 300
77 130 148 195 191 257 8 236 256 214 249 202 177 162 153 149 143 145 145 134 338 336 337 340 338 330 316 310 313 312 300 287 281 290 297 300 297 295 297 298 301 304 303 300 296 291 288 287 287
171 78 147 106 38 45 243 287 297 226 187 162 169 169 166 163 169 178 189 293 330 331 329 328 327 328 321 320 322 326 322 310 295 288 297 303 301 297 296 297 299 301 299 298 295 292 289 285 284
70 152 71 1 138 262 287 276 241 210 209 200 191 189 177 181 190 192 220 291 320 324 324 323 321 324 335 339 338 339 343 341 330 319 312 309 307 302 300 302 301 300 299 297 295 293 292 288 286
88 43 51 113 116 176 301 265 213 227 201 191 200 191 185 192 199 206 242 298 320 328 332 341 338 330 325 335 341 341 337 336 330 323 316 311 310 308 306 304 301 301 299 297 293 290 288 285 286
151 194 149 124 221 111 147 273 285 258 212 193 192 190 190 202 200 215 255 300 321 336 352 14 24 29 33 29 18 7 358 349 341 335 330 324 319 315 312 308 306 304 301 298 293 290 286 283 281